{"data":{"norad_id":68672,"epoch":"2026-09-19T22:08:58.847712Z","epoch_age_seconds":93668,"freshness":"FRESH","line1":"1 68672U 26077L   26262.92290333  .00015007  00000+0  46601-3 0  9992","line2":"2 68672  97.2841 132.8101 0002355  92.0823 268.0689 15.33460402 24921","mean_motion":15.33460402,"eccentricity":0.0002355,"inclination_deg":97.2841,"raan_deg":132.8101,"arg_perigee_deg":92.0823,"mean_anomaly_deg":268.0689,"bstar":0.00046601,"rev_number":2492,"period_min":93.905261467586,"perigee_km":463.88567345665,"apogee_km":467.10902523519,"semimajor_km":6843.6343493459,"source":"CELESTRAK","updated_at":"2026-09-20T09:00:43.951660Z"}}